[[{"header":{"parameterUnit":"m.s-1","parameterCategory":2,"la1":30.2992,"la2":30.254,"lo1":-89.0895,"lo2":-89.0443,"dy":0.0025,"dx":0.0025,"nx":19,"ny":19,"refTime":"2026-03-19T09:00:00:Z","depth":"0","parameterNumber":2,"parameterNumberName":"U-component_of_CURRENTS"},"data":[0,0,0,0.1515,0.1516,0.1613,0.1613,0.1682,0.1683,0,0,0,0,0,0,0,0,0,0,0,0.148,0.148,0.1515,0.1516,0.1613,0.1613,0.1682,0.1683,0,0,0,0,0,0,0,0,0,0,0,0.148,0.148,0.148,0.1516,0.1612,0.1614,0.1682,0.1631,0,0,0,0,0,0,0,0,0,0,0.1547,0.1515,0.148,0.148,0.1516,0.1612,0.1614,0.1629,0.1634,0.1613,0,0.1607,0,0.163,0.1683,0.1683,0,0,0,0.1548,0.1511,0.1526,0.148,0.1517,0.1612,0.1578,0.1632,0.1638,0.1619,0.1608,0.1611,0.1631,0.1683,0.1683,0.1735,0.1735,0,0,0.1542,0.1514,0.1522,0.1528,0.1512,0.1575,0.1581,0.1637,0.1633,0.1608,0.1613,0.1633,0.1683,0.1683,0.1734,0.1735,0,0,0,0.1506,0.151,0.1526,0.1525,0.1538,0.1577,0.1584,0.1632,0.1633,0.1614,0.1633,0.1683,0.1683,0.1734,0.1734,0.1746,0,0,0,0.1504,0.1486,0.1523,0.151,0.1537,0.1594,0.1577,0.163,0.1637,0.1633,0.1683,0.1683,0.1733,0.1734,0.1745,0.1727,0,0,0,0.1481,0.1484,0.1484,0.1507,0.1534,0.1594,0.1602,0.1633,0.1647,0.1683,0.1683,0.1733,0.1734,0.1743,0.1726,0.1769,0,0,0,0.1466,0.1462,0.1483,0.1499,0.1533,0.1616,0.1602,0.1687,0.1728,0.1683,0.1733,0.1734,0.1743,0.1725,0.1768,0.1751,0.1756,0,0,0.1457,0.146,0.1476,0.1497,0.1558,0.1606,0.1677,0.1728,0.1732,0.1714,0.1717,0.1745,0.1726,0.1769,0.1822,0.1824,0,0,0,0.1473,0.1461,0.1494,0.1527,0.1604,0.1667,0.1731,0.1741,0.1772,0.1752,0.1767,0.1754,0.1781,0.1769,0.1772,0.1793,0.174,0.174,0.174,0.1385,0.1444,0.1471,0.1545,0.1607,0.1716,0.1764,0.1781,0.1795,0.1817,0.1781,0.1841,0.1829,0.1831,0.1854,0.1813,0.1813,0.1813,0.1813,0.1342,0.1365,0.143,0.1473,0.1571,0.1635,0.174,0.1779,0.1822,0.181,0.1837,0.1802,0.1834,0.1858,0.1815,0.1814,0.1814,0.1814,0.1814,0.1292,0.1315,0.1339,0.1401,0.148,0.1594,0.1656,0.1742,0.1809,0.1845,0.1865,0.1865,0.1871,0.1882,0.1882,0.1882,0.1882,0.1882,0.1882,0.1244,0.1277,0.1272,0.1345,0.1388,0.1475,0.1629,0.1692,0.1814,0.1867,0.1868,0.1898,0.1862,0.1842,0.1884,0.1884,0.1884,0.1883,0.1883,0.1187,0.1219,0.1195,0.1215,0.1318,0.1372,0.1531,0.1666,0.177,0.1816,0.1923,0.1892,0.1887,0.1884,0.1866,0.1912,0.1912,0.1912,0.1912,0.1145,0.116,0.1124,0.1144,0.122,0.1327,0.1369,0.1509,0.1746,0.1859,0.1949,0.193,0.1928,0.1925,0.1921,0.1904,0.1958,0.1959,0.1959,0.1083,0.1081,0.1033,0.1077,0.1181,0.1249,0.124,0.1335,0.1718,0.1964,0.1987,0.1985,0.1961,0.1955,0.195,0.1943,0.1914,0,0]},{"header":{"parameterUnit":"m.s-1","parameterCategory":2,"la1":30.2992,"la2":30.254,"lo1":-89.0895,"lo2":-89.0443,"dy":0.0025,"dx":0.0025,"nx":19,"ny":19,"refTime":"2026-03-19T09:00:00:Z","depth":"0","parameterNumber":3,"parameterNumberName":"V-component_of_CURRENTS"},"data":[0,0,0,-0.0166,-0.0162,-0.0043,-0.0043,0.0004,0.0005,0,0,0,0,0,0,0,0,0,0,0,-0.0254,-0.0253,-0.0166,-0.0162,-0.0043,-0.0043,0.0004,0.0005,0,0,0,0,0,0,0,0,0,0,0,-0.0254,-0.0253,-0.0253,-0.0162,-0.0043,-0.0043,0.0004,-0.0066,0,0,0,0,0,0,0,0,0,0,-0.0171,-0.0198,-0.0253,-0.0253,-0.0161,-0.0043,-0.0043,-0.0068,-0.0061,-0.0071,0,-0.0066,0,0.0001,0.0008,0.0008,0,0,0,-0.0188,-0.0203,-0.0188,-0.0253,-0.0159,-0.0043,-0.0104,-0.0064,-0.0056,-0.0063,-0.0064,-0.006,0.0002,0.0008,0.0009,0.0074,0.0075,0,0,-0.0195,-0.0213,-0.0193,-0.0184,-0.0146,-0.0108,-0.01,-0.0058,-0.005,-0.0064,-0.0057,0.0003,0.0009,0.0009,0.0074,0.0074,0,0,0,-0.0196,-0.0217,-0.0201,-0.0189,-0.0141,-0.0104,-0.0095,-0.0053,-0.0053,-0.0056,0.0003,0.0009,0.001,0.0074,0.0074,0.0102,0,0,0,-0.0201,-0.0216,-0.0205,-0.0211,-0.0141,-0.0069,-0.0091,-0.0058,-0.0048,0.0003,0.0009,0.001,0.0073,0.0074,0.0101,0.0122,0,0,0,-0.0256,-0.0219,-0.0216,-0.0213,-0.0146,-0.0068,-0.0065,-0.0054,-0.0011,0.0008,0.001,0.0073,0.0074,0.0099,0.0119,0.0149,0,0,0,-0.0265,-0.0222,-0.0217,-0.0153,-0.0147,-0.0069,-0.0064,-0.0002,0.0016,0.0009,0.0073,0.0074,0.0099,0.0117,0.0147,0.0197,0.021,0,0,-0.0208,-0.0216,-0.0179,-0.0169,-0.0106,-0.0086,-0.0003,0.0022,0.0024,0.0046,0.0049,0.0101,0.0119,0.0148,0.0247,0.0258,0,0,0,-0.0157,-0.0131,-0.0115,-0.0073,-0.0043,-0.0004,0.004,0.0056,0.0086,0.0047,0.0111,0.0122,0.0139,0.0166,0.0175,0.0152,0.0078,0.0078,0.0078,-0.0095,-0.0083,-0.0035,-0.0018,0.0014,0.0066,0.0096,0.0125,0.0115,0.0134,0.0151,0.0204,0.0233,0.024,0.0216,0.0154,0.0155,0.0155,0.0155,0.0002,0.0028,0.0021,0.0076,0.0067,0.0119,0.0162,0.017,0.0215,0.0191,0.0207,0.0203,0.0252,0.0222,0.0157,0.0156,0.0156,0.0156,0.0156,0.0051,0.0056,0.0079,0.0112,0.0137,0.0161,0.0227,0.0248,0.0245,0.0268,0.0299,0.0299,0.0267,0.0276,0.0276,0.0276,0.0276,0.0276,0.0277,0.0076,0.0091,0.0124,0.0161,0.0168,0.0216,0.0274,0.0309,0.0349,0.0346,0.0347,0.0292,0.0241,0.0229,0.028,0.028,0.0279,0.0279,0.0279,0.0147,0.0129,0.0181,0.0201,0.0259,0.0347,0.0379,0.046,0.0475,0.0495,0.041,0.0388,0.0386,0.0379,0.0372,0.0456,0.0456,0.0457,0.0457,0.0159,0.0171,0.0225,0.0283,0.0358,0.0424,0.0576,0.0624,0.0571,0.0535,0.0469,0.0444,0.0438,0.0436,0.0428,0.042,0.0515,0.0515,0.0515,0.0184,0.0194,0.0255,0.0324,0.0415,0.0528,0.0684,0.0809,0.0685,0.0512,0.0428,0.0426,0.0379,0.0371,0.0358,0.0348,0.0331,0,0]}],[{"header":{"parameterUnit":"m.s-1","parameterCategory":2,"la1":30.2992,"la2":30.254,"lo1":-89.0895,"lo2":-89.0443,"dy":0.0025,"dx":0.0025,"nx":19,"ny":19,"refTime":"2026-03-19T09:00:00:Z","depth":"2","parameterNumber":2,"parameterNumberName":"U-component_of_CURRENTS"},"data":[0,0,0,0.0594,0.0597,0.0614,0.0613,0.0819,0.0823,0,0,0,0,0,0,0,0,0,0,0,0.0625,0.0628,0.0594,0.0597,0.0615,0.0613,0.0819,0.0823,0,0,0,0,0,0,0,0,0,0,0,0.0624,0.0628,0.0632,0.0598,0.0615,0.0613,0.0818,0.0738,0,0,0,0,0,0,0,0,0,0,0.069,0.0559,0.0627,0.0632,0.0599,0.0615,0.0613,0.0732,0.0744,0.0892,0,0.099,0,0.0945,0.0849,0.085,0,0,0,0.051,0.0547,0.0735,0.0632,0.06,0.0615,0.0582,0.0736,0.075,0.0909,0.0992,0.0997,0.0949,0.0851,0.0853,0.1228,0.1229,0,0,0.051,0.0433,0.0726,0.0748,0.0738,0.0582,0.0584,0.0741,0.0711,0.0992,0.1,0.0952,0.0854,0.0857,0.1227,0.1228,0,0,0,0.0565,0.0431,0.0603,0.0742,0.075,0.0585,0.0586,0.0699,0.0814,0.1002,0.0954,0.0856,0.0861,0.1226,0.1227,0.1229,0,0,0,0.056,0.0474,0.0606,0.053,0.0749,0.0657,0.054,0.0801,0.0816,0.0953,0.0856,0.0865,0.1224,0.1227,0.1226,0.1231,0,0,0,0.06,0.0468,0.0555,0.0532,0.0594,0.0655,0.076,0.08,0.0794,0.085,0.0866,0.1223,0.1226,0.1224,0.1227,0.13,0,0,0,0.0402,0.055,0.0553,0.0654,0.0597,0.071,0.0757,0.0794,0.0843,0.0858,0.1224,0.1227,0.1223,0.1225,0.1297,0.121,0.1218,0,0,0.0497,0.0555,0.0624,0.0634,0.0762,0.0694,0.0787,0.0894,0.0941,0.1169,0.1175,0.1227,0.1227,0.1299,0.1375,0.1376,0,0,0,0.0592,0.068,0.0725,0.0765,0.0827,0.0825,0.0876,0.096,0.1099,0.1005,0.1285,0.1286,0.1331,0.1274,0.1277,0.1241,0.124,0.124,0.124,0.0627,0.0674,0.0769,0.0855,0.0886,0.094,0.0999,0.112,0.1195,0.1258,0.133,0.1445,0.1386,0.1387,0.1378,0.1378,0.1378,0.1378,0.1378,0.0756,0.0825,0.0813,0.0938,0.0951,0.1018,0.1156,0.121,0.141,0.139,0.1434,0.1331,0.1389,0.1379,0.1379,0.1379,0.1379,0.1379,0.1379,0.078,0.0826,0.0876,0.0937,0.1006,0.108,0.124,0.1342,0.1411,0.147,0.1467,0.1466,0.143,0.1524,0.1524,0.1524,0.1525,0.1525,0.1525,0.077,0.0839,0.0892,0.0969,0.1007,0.1086,0.1257,0.1366,0.1471,0.1488,0.1488,0.1495,0.149,0.1443,0.1531,0.153,0.1529,0.1528,0.1528,0.0821,0.0841,0.0892,0.0932,0.1009,0.1042,0.1206,0.1343,0.1476,0.1494,0.1502,0.15,0.1499,0.1496,0.1452,0.1537,0.1537,0.1537,0.1537,0.0794,0.084,0.0863,0.0919,0.0979,0.1021,0.1061,0.1102,0.124,0.1237,0.1249,0.1156,0.1163,0.1138,0.1143,0.1089,0.108,0.1079,0.1078,0.0743,0.0763,0.076,0.0868,0.0949,0.0964,0.0887,0.0874,0.0963,0.1053,0.11,0.152,0.1413,0.1413,0.1399,0.1397,0.1321,0,0]},{"header":{"parameterUnit":"m.s-1","parameterCategory":2,"la1":30.2992,"la2":30.254,"lo1":-89.0895,"lo2":-89.0443,"dy":0.0025,"dx":0.0025,"nx":19,"ny":19,"refTime":"2026-03-19T09:00:00:Z","depth":"2","parameterNumber":3,"parameterNumberName":"V-component_of_CURRENTS"},"data":[0,0,0,-0.0221,-0.0219,-0.016,-0.016,-0.0108,-0.0108,0,0,0,0,0,0,0,0,0,0,0,-0.0296,-0.0296,-0.0221,-0.0219,-0.016,-0.016,-0.0109,-0.0108,0,0,0,0,0,0,0,0,0,0,0,-0.0296,-0.0296,-0.0297,-0.0219,-0.016,-0.016,-0.0109,-0.0152,0,0,0,0,0,0,0,0,0,0,-0.0209,-0.0212,-0.0296,-0.0297,-0.0218,-0.016,-0.016,-0.0154,-0.015,-0.0135,0,-0.0153,0,-0.0096,-0.0103,-0.0103,0,0,0,-0.024,-0.0216,-0.0242,-0.0297,-0.0217,-0.016,-0.0193,-0.0152,-0.0146,-0.0129,-0.0152,-0.0148,-0.0095,-0.0102,-0.0102,-0.0019,-0.0019,0,0,-0.0243,-0.0236,-0.0246,-0.024,-0.0237,-0.0194,-0.0191,-0.0148,-0.0133,-0.0151,-0.0145,-0.0094,-0.0102,-0.0101,-0.002,-0.0019,0,0,0,-0.0238,-0.0238,-0.0265,-0.0244,-0.0212,-0.0192,-0.0188,-0.0135,-0.0157,-0.0144,-0.0094,-0.0102,-0.0101,-0.002,-0.002,0.0017,0,0,0,-0.0241,-0.0234,-0.0267,-0.0255,-0.0214,-0.0151,-0.0175,-0.0162,-0.0153,-0.0094,-0.0102,-0.01,-0.0021,-0.002,0.0015,0.0038,0,0,0,-0.0292,-0.0235,-0.0252,-0.0256,-0.0219,-0.0151,-0.0169,-0.016,-0.012,-0.0103,-0.01,-0.0021,-0.002,0.0014,0.0035,0.0061,0,0,0,-0.0257,-0.0238,-0.0252,-0.0188,-0.022,-0.0178,-0.0169,-0.0122,-0.0108,-0.0101,-0.0021,-0.002,0.0013,0.0033,0.0059,0.0096,0.0108,0,0,-0.0207,-0.0231,-0.0189,-0.0198,-0.0175,-0.0185,-0.0102,-0.0084,-0.0088,-0.0041,-0.0039,0.0016,0.0034,0.006,0.0146,0.0156,0,0,0,-0.0151,-0.0142,-0.0134,-0.0112,-0.011,-0.0092,-0.0064,-0.0051,-0.002,-0.0069,0.0023,0.0034,0.0049,0.0068,0.0076,-0.0016,-0.0016,-0.0016,-0.0016,-0.0093,-0.0086,-0.0051,-0.0059,-0.0041,-0.0016,0.0007,0.0029,0.002,0.0036,0.0069,0.0121,0.0142,0.0149,0.0071,0.0071,0.0071,0.0071,0.0071,-0.0003,0.0018,0.0006,0.0042,0.0013,0.0059,0.0094,0.0097,0.0141,0.0114,0.0127,0.0112,0.0161,0.0074,0.0074,0.0073,0.0073,0.0073,0.0073,0.0047,0.004,0.0066,0.0083,0.0091,0.011,0.017,0.0188,0.0175,0.0194,0.0211,0.0211,0.0143,0.0201,0.0201,0.0201,0.0202,0.0202,0.0202,0.0069,0.0077,0.0106,0.0126,0.0124,0.0167,0.0221,0.0252,0.0279,0.0263,0.0263,0.0165,0.0161,0.0151,0.0205,0.0205,0.0204,0.0204,0.0204,0.0123,0.0108,0.0151,0.0167,0.0212,0.0285,0.0321,0.0389,0.0401,0.0407,0.03,0.0296,0.0289,0.0282,0.0275,0.0359,0.0359,0.0359,0.0359,0.0128,0.0139,0.0192,0.0245,0.0311,0.036,0.048,0.0457,0.0401,0.0329,0.033,0.03,0.0295,0.0285,0.0278,0.0269,0.0351,0.0351,0.035,0.015,0.0157,0.0218,0.0286,0.0368,0.0457,0.0554,0.0549,0.0417,0.0344,0.0267,0.037,0.0327,0.0319,0.0302,0.0291,0.0276,0,0]}],[{"header":{"parameterUnit":"m.s-1","parameterCategory":2,"la1":30.2992,"la2":30.254,"lo1":-89.0895,"lo2":-89.0443,"dy":0.0025,"dx":0.0025,"nx":19,"ny":19,"refTime":"2026-03-19T09:00:00:Z","depth":"4","parameterNumber":2,"parameterNumberName":"U-component_of_CURRENTS"},"data":[0,0,0,-0.0603,-0.0606,-0.0709,-0.071,-0.0874,-0.0875,0,0,0,0,0,0,0,0,0,0,0,-0.0571,-0.0572,-0.0603,-0.0606,-0.0709,-0.071,-0.0874,-0.0875,0,0,0,0,0,0,0,0,0,0,0,-0.0571,-0.0572,-0.0573,-0.0606,-0.0709,-0.071,-0.0873,-0.0787,0,0,0,0,0,0,0,0,0,0,-0.0682,-0.0633,-0.0572,-0.0573,-0.0607,-0.0709,-0.071,-0.0782,-0.0792,-0.0836,0,-0.0858,0,-0.0872,-0.0887,-0.0888,0,0,0,-0.0605,-0.0624,-0.0668,-0.0573,-0.0608,-0.0709,-0.0662,-0.0788,-0.0799,-0.0849,-0.0861,-0.0866,-0.0874,-0.0888,-0.0889,-0.108,-0.1081,0,0,-0.0599,-0.0576,-0.0661,-0.0676,-0.0645,-0.0659,-0.0666,-0.0794,-0.0801,-0.0861,-0.087,-0.0877,-0.0889,-0.0891,-0.1079,-0.108,0,0,0,-0.0583,-0.0571,-0.0611,-0.0669,-0.0686,-0.0662,-0.067,-0.0795,-0.0814,-0.0872,-0.0879,-0.089,-0.0893,-0.1078,-0.1079,-0.1084,0,0,0,-0.058,-0.0563,-0.0609,-0.0594,-0.0684,-0.0734,-0.0668,-0.0805,-0.082,-0.0878,-0.0891,-0.0894,-0.1077,-0.1079,-0.1082,-0.1055,0,0,0,-0.0565,-0.056,-0.0579,-0.0592,-0.0639,-0.0732,-0.0757,-0.0808,-0.0824,-0.0888,-0.0895,-0.1077,-0.1079,-0.108,-0.1053,-0.0989,0,0,0,-0.0527,-0.055,-0.0578,-0.0602,-0.0638,-0.0688,-0.0756,-0.0802,-0.085,-0.0891,-0.1077,-0.1079,-0.108,-0.1052,-0.0989,-0.0739,0,0,0,-0.0533,-0.055,-0.0564,-0.0591,-0.0616,-0.0673,-0.0709,-0.0804,-0.0901,-0.1035,-0.104,-0.1083,-0.1053,-0.0989,-0.0852,0,0,0,0,-0.055,-0.0563,-0.0574,-0.0598,-0.0637,-0.0692,-0.0757,-0.0823,-0.0988,-0.0941,-0.1119,-0.11,-0.1058,-0.0917,-0.1088,-0.1088,-0.1088,-0.1088,-0.1087,-0.0532,-0.055,-0.0563,-0.0595,-0.0625,-0.0702,-0.076,-0.088,-0.0967,-0.1063,-0.1132,-0.1124,-0.0983,-0.1181,-0.1181,-0.1181,-0.1181,-0.1181,-0.1181,-0.0528,-0.0536,-0.0555,-0.06,-0.0654,-0.0719,-0.0834,-0.0918,-0.104,-0.1147,-0.1107,-0.097,-0.1182,-0.1182,-0.1182,-0.1182,-0.1182,-0.1182,-0.1181,-0.0515,-0.0519,-0.0569,-0.0609,-0.0692,-0.0787,-0.0813,-0.0986,-0.1063,-0.1066,-0.0912,-0.1101,-0.1062,-0.1078,-0.1077,-0.1077,-0.1077,-0.1077,-0.1076,-0.0488,-0.0516,-0.0571,-0.0636,-0.0669,-0.0769,-0.0868,-0.083,-0.0935,-0.0868,-0.1088,-0.1087,-0.1091,-0.1056,-0.1071,-0.1072,-0.1072,-0.1073,-0.1073,-0.0468,-0.0517,-0.0551,-0.0589,-0.0615,-0.0635,-0.0725,-0.0607,-0.0536,-0.0455,-0.0721,-0.074,-0.0692,-0.0704,-0.0654,-0.0549,-0.0546,-0.0542,0,-0.0456,-0.0485,-0.0509,-0.0497,-0.0454,-0.0529,-0.0336,-0.0296,-0.0373,-0.0418,-0.0551,-0.0863,-0.0873,-0.0831,-0.0836,-0.0782,0,0,0,-0.0438,-0.0459,-0.0447,-0.0451,-0.0367,-0.029,-0.0293,-0.0222,-0.0433,-0.0181,-0.046,-0.0482,-0.0679,-0.1054,-0.1024,-0.1028,-0.097,0,0]},{"header":{"parameterUnit":"m.s-1","parameterCategory":2,"la1":30.2992,"la2":30.254,"lo1":-89.0895,"lo2":-89.0443,"dy":0.0025,"dx":0.0025,"nx":19,"ny":19,"refTime":"2026-03-19T09:00:00:Z","depth":"4","parameterNumber":3,"parameterNumberName":"V-component_of_CURRENTS"},"data":[0,0,0,0.0064,0.0063,-0.0052,-0.0052,-0.0223,-0.0224,0,0,0,0,0,0,0,0,0,0,0,0.0102,0.0102,0.0064,0.0063,-0.0052,-0.0052,-0.0223,-0.0224,0,0,0,0,0,0,0,0,0,0,0,0.0102,0.0102,0.0101,0.0062,-0.0051,-0.0052,-0.0223,-0.0137,0,0,0,0,0,0,0,0,0,0,-0.0025,0.0015,0.0102,0.0101,0.0062,-0.0051,-0.0053,-0.0133,-0.0142,-0.017,0,-0.0172,0,-0.019,-0.0234,-0.0235,0,0,0,0.0036,0.0023,0.0005,0.0101,0.0061,-0.0051,-0.0008,-0.0138,-0.0149,-0.0183,-0.0174,-0.0181,-0.0193,-0.0235,-0.0236,-0.0362,-0.0362,0,0,0.0042,0.0061,0.0013,-0.0001,0.0051,-0.0004,-0.0011,-0.0144,-0.0155,-0.0175,-0.0185,-0.0196,-0.0236,-0.0237,-0.0361,-0.0362,0,0,0,0.0078,0.0066,0.0051,0.0006,-0.0006,-0.0006,-0.0015,-0.015,-0.015,-0.0187,-0.0198,-0.0237,-0.0239,-0.0361,-0.0362,-0.0345,0,0,0,0.0081,0.0089,0.0054,0.0061,-0.0003,-0.0077,-0.0017,-0.0142,-0.0157,-0.0197,-0.0237,-0.024,-0.0361,-0.0361,-0.0344,-0.034,0,0,0,0.0104,0.009,0.0087,0.0063,0.0027,-0.0075,-0.0086,-0.0146,-0.0163,-0.0235,-0.024,-0.036,-0.0361,-0.0344,-0.0339,-0.0342,0,0,0,0.0112,0.0087,0.0087,0.0042,0.0029,-0.0071,-0.0085,-0.0177,-0.0242,-0.0238,-0.0361,-0.0361,-0.0344,-0.0339,-0.0341,-0.0298,0,0,0,0.0081,0.0084,0.0053,0.0051,-0.0024,-0.0058,-0.0164,-0.0246,-0.0258,-0.0322,-0.0326,-0.0344,-0.0339,-0.0342,-0.0342,0,0,0,0,0.0041,0.0036,0.0006,-0.0031,-0.01,-0.0181,-0.0252,-0.0272,-0.0322,-0.0293,-0.0364,-0.0362,-0.0364,-0.0339,-0.0365,-0.0365,-0.0365,-0.0365,-0.0365,0.0024,-0.0004,-0.006,-0.0107,-0.0173,-0.0272,-0.0331,-0.0368,-0.0366,-0.0373,-0.0363,-0.0374,-0.0349,-0.0379,-0.0379,-0.0379,-0.0379,-0.0378,-0.0378,-0.0017,-0.0053,-0.0093,-0.015,-0.0232,-0.0318,-0.04,-0.0402,-0.0405,-0.0388,-0.039,-0.0341,-0.0377,-0.0378,-0.0378,-0.0378,-0.0378,-0.0378,-0.0378,-0.0026,-0.005,-0.0073,-0.0156,-0.0249,-0.0343,-0.0388,-0.04,-0.0394,-0.0386,-0.034,-0.0369,-0.0354,-0.036,-0.036,-0.036,-0.036,-0.036,-0.036,-0.0035,-0.0058,-0.0098,-0.0173,-0.0241,-0.0305,-0.0363,-0.0366,-0.0359,-0.0325,-0.0357,-0.0368,-0.0368,-0.0354,-0.036,-0.036,-0.036,-0.036,-0.036,-0.0059,-0.0056,-0.0115,-0.0169,-0.0291,-0.0315,-0.0358,-0.0333,-0.0324,-0.0308,-0.0309,-0.0312,-0.0315,-0.0317,-0.0301,-0.0291,-0.029,-0.029,0,-0.0077,-0.0077,-0.0154,-0.0233,-0.0297,-0.0339,-0.0305,-0.0301,-0.0292,-0.0274,-0.0334,-0.0337,-0.0338,-0.0344,-0.0344,-0.0327,0,0,0,-0.0109,-0.0122,-0.0182,-0.0239,-0.0316,-0.0297,-0.0289,-0.0267,-0.0293,-0.0275,-0.0276,-0.028,-0.0354,-0.0359,-0.0371,-0.0371,-0.0349,0,0]}]]